Time,TemperatureF,DewpointF,PressureIn,WindDirection,WindDirectionDegrees,WindSpeedMPH,WindSpeedGustMPH,Humidity,HourlyPrecipIn,Conditions,Clouds,dailyrainin,SoftwareType,DateUTC
2013-06-13 00:01:00,63.3,59.5,29.01,South,180,0.0,2.0,87,0.00,,,0.00,Rainwise IP-100,2013-06-13 04:01:00,
2013-06-13 00:06:00,63.2,59.0,29.01,South,180,0.0,1.0,87,0.00,,,0.00,Rainwise IP-100,2013-06-13 04:06:00,
2013-06-13 00:11:00,63.3,59.5,29.01,South,180,1.0,2.0,87,0.00,,,0.00,Rainwise IP-100,2013-06-13 04:11:00,
2013-06-13 00:16:00,63.3,59.5,29.01,South,180,0.0,2.0,86,0.00,,,0.00,Rainwise IP-100,2013-06-13 04:16:00,
2013-06-13 00:21:00,63.5,59.0,29.01,South,180,1.0,2.0,85,0.00,,,0.00,Rainwise IP-100,2013-06-13 04:21:00,
2013-06-13 00:26:00,63.6,59.0,29.01,South,180,0.0,2.0,84,0.00,,,0.00,Rainwise IP-100,2013-06-13 04:26:00,
2013-06-13 00:31:00,63.7,59.0,29.01,South,180,0.0,2.0,84,0.00,,,0.00,Rainwise IP-100,2013-06-13 04:31:00,
2013-06-13 00:36:00,63.7,59.0,29.01,South,180,0.0,0.0,84,0.00,,,0.00,Rainwise IP-100,2013-06-13 04:36:00,
2013-06-13 00:41:00,63.7,58.0,29.01,South,180,0.0,0.0,83,0.00,,,0.00,Rainwise IP-100,2013-06-13 04:41:00,
2013-06-13 00:46:00,63.8,60.0,29.00,ENE,67,1.0,2.0,86,0.00,,,0.00,Rainwise IP-100,2013-06-13 04:46:00,
2013-06-13 00:51:00,63.7,59.5,29.00,ENE,67,0.0,2.0,86,0.00,,,0.00,Rainwise IP-100,2013-06-13 04:51:00,
2013-06-13 00:56:00,63.6,59.5,29.01,ENE,67,0.0,0.0,87,0.00,,,0.00,Rainwise IP-100,2013-06-13 04:56:00,
2013-06-13 01:01:00,63.4,59.5,29.01,ENE,67,0.0,0.0,87,0.00,,,0.00,Rainwise IP-100,2013-06-13 05:01:00,
2013-06-13 01:06:00,63.3,59.5,29.00,ENE,67,0.0,0.0,87,0.00,,,0.00,Rainwise IP-100,2013-06-13 05:06:00,
2013-06-13 01:11:00,63.1,59.5,29.00,ENE,67,0.0,0.0,88,0.00,,,0.00,Rainwise IP-100,2013-06-13 05:11:00,
2013-06-13 01:16:00,63.1,59.5,28.99,ENE,67,0.0,0.0,88,0.00,,,0.00,Rainwise IP-100,2013-06-13 05:16:00,
2013-06-13 01:21:00,63.1,59.5,28.99,ENE,67,0.0,0.0,88,0.00,,,0.00,Rainwise IP-100,2013-06-13 05:21:00,
2013-06-13 01:26:00,62.9,59.5,28.99,SE,135,2.0,0.0,88,0.00,,,0.00,Rainwise IP-100,2013-06-13 05:26:00,
2013-06-13 01:31:00,63.1,59.5,28.99,SE,135,1.0,2.0,88,0.00,,,0.00,Rainwise IP-100,2013-06-13 05:31:00,
2013-06-13 01:36:00,63.1,59.5,28.98,SE,135,1.0,2.0,88,0.00,,,0.00,Rainwise IP-100,2013-06-13 05:36:00,
2013-06-13 01:41:00,63.1,59.5,28.97,East,90,0.0,2.0,88,0.00,,,0.00,Rainwise IP-100,2013-06-13 05:41:00,
2013-06-13 01:46:00,63.1,60.0,28.97,NE,45,1.0,2.0,90,0.00,,,0.00,Rainwise IP-100,2013-06-13 05:46:00,
2013-06-13 01:51:00,62.9,60.0,28.97,NE,45,0.0,2.0,90,0.00,,,0.00,Rainwise IP-100,2013-06-13 05:51:00,
2013-06-13 01:56:00,62.7,60.0,28.97,SE,135,0.0,2.0,92,0.00,,,0.00,Rainwise IP-100,2013-06-13 05:56:00,
2013-06-13 02:01:00,62.7,60.5,28.97,SE,135,2.0,2.0,93,0.00,,,0.00,Rainwise IP-100,2013-06-13 06:01:00,
2013-06-13 02:04:00,62.8,60.5,28.96,SE,135,0.0,2.0,92,0.00,,,0.00,Rainwise IP-100,2013-06-13 06:04:00,
2013-06-13 02:09:00,62.7,60.5,28.96,ENE,67,2.0,2.0,93,0.00,,,0.00,Rainwise IP-100,2013-06-13 06:09:00,
2013-06-13 02:14:00,62.6,61.0,28.96,ENE,67,2.0,2.0,94,0.00,,,0.00,Rainwise IP-100,2013-06-13 06:14:00,
2013-06-13 02:19:00,62.5,61.0,28.96,NE,45,1.0,2.0,95,0.00,,,0.00,Rainwise IP-100,2013-06-13 06:19:00,
2013-06-13 02:24:00,62.3,61.0,28.96,NNE,22,2.0,2.0,95,0.00,,,0.00,Rainwise IP-100,2013-06-13 06:24:00,
2013-06-13 02:29:00,62.1,60.5,28.96,NNE,22,0.0,2.0,95,0.00,,,0.00,Rainwise IP-100,2013-06-13 06:29:00,
2013-06-13 02:34:00,62.1,60.5,28.95,NNE,22,0.0,0.0,95,0.00,,,0.00,Rainwise IP-100,2013-06-13 06:34:00,
2013-06-13 02:39:00,62.1,60.5,28.95,NNE,22,0.0,0.0,95,0.00,,,0.00,Rainwise IP-100,2013-06-13 06:39:00,
2013-06-13 02:44:00,62.1,61.0,28.95,NNE,22,0.0,0.0,96,0.00,,,0.00,Rainwise IP-100,2013-06-13 06:44:00,
2013-06-13 02:49:00,62.1,61.0,28.95,NNE,22,1.0,2.0,96,0.00,,,0.00,Rainwise IP-100,2013-06-13 06:49:00,
2013-06-13 02:54:00,62.1,61.0,28.95,NNE,22,1.0,2.0,96,0.00,,,0.00,Rainwise IP-100,2013-06-13 06:54:00,
2013-06-13 02:59:00,62.0,61.0,28.94,NNE,22,0.0,2.0,96,0.00,,,0.00,Rainwise IP-100,2013-06-13 06:59:00,
2013-06-13 03:04:00,62.0,61.0,28.94,NNE,22,0.0,2.0,97,0.00,,,0.00,Rainwise IP-100,2013-06-13 07:04:00,
2013-06-13 03:09:00,61.9,61.0,28.94,NNE,22,0.0,0.0,97,0.00,,,0.00,Rainwise IP-100,2013-06-13 07:09:00,
2013-06-13 03:14:00,61.8,61.0,28.93,NNE,22,0.0,0.0,96,0.00,,,0.00,Rainwise IP-100,2013-06-13 07:14:00,
2013-06-13 03:19:00,61.7,60.5,28.93,NNE,22,0.0,0.0,96,0.00,,,0.00,Rainwise IP-100,2013-06-13 07:19:00,
2013-06-13 03:24:00,61.5,60.5,28.93,NNE,22,0.0,0.0,96,0.00,,,0.00,Rainwise IP-100,2013-06-13 07:24:00,
2013-06-13 03:29:00,61.5,60.5,28.92,NNE,22,0.0,0.0,97,0.00,,,0.00,Rainwise IP-100,2013-06-13 07:29:00,
2013-06-13 03:34:00,61.5,60.5,28.92,SE,135,2.0,2.0,97,0.00,,,0.00,Rainwise IP-100,2013-06-13 07:34:00,
2013-06-13 03:39:00,61.6,60.5,28.92,SE,135,0.0,2.0,97,0.00,,,0.00,Rainwise IP-100,2013-06-13 07:39:00,
2013-06-13 03:44:00,61.6,60.5,28.91,SE,135,0.0,2.0,97,0.00,,,0.00,Rainwise IP-100,2013-06-13 07:44:00,
2013-06-13 03:49:00,61.4,60.5,28.91,SE,135,0.0,0.0,97,0.00,,,0.00,Rainwise IP-100,2013-06-13 07:49:00,
2013-06-13 03:54:00,61.4,60.5,28.90,SE,135,0.0,0.0,97,0.00,,,0.00,Rainwise IP-100,2013-06-13 07:54:00,
2013-06-13 03:59:00,61.3,60.5,28.89,SE,135,0.0,0.0,97,0.00,,,0.00,Rainwise IP-100,2013-06-13 07:59:00,
2013-06-13 04:04:00,61.3,60.5,28.90,SE,135,0.0,0.0,97,0.00,,,0.00,Rainwise IP-100,2013-06-13 08:04:00,
2013-06-13 04:09:00,61.3,60.5,28.89,SE,135,0.0,0.0,97,0.00,,,0.00,Rainwise IP-100,2013-06-13 08:09:00,
2013-06-13 04:14:00,61.1,60.0,28.89,SE,135,0.0,0.0,97,0.00,,,0.00,Rainwise IP-100,2013-06-13 08:14:00,
2013-06-13 04:19:00,61.1,60.0,28.88,ENE,67,0.0,0.0,97,0.00,,,0.00,Rainwise IP-100,2013-06-13 08:19:00,
2013-06-13 04:24:00,61.1,60.0,28.88,ENE,67,0.0,0.0,97,0.00,,,0.00,Rainwise IP-100,2013-06-13 08:24:00,
2013-06-13 04:29:00,61.1,60.0,28.88,ENE,67,0.0,0.0,97,0.00,,,0.00,Rainwise IP-100,2013-06-13 08:29:00,
2013-06-13 04:34:00,61.3,60.5,28.88,SSW,202,1.0,2.0,97,0.00,,,0.00,Rainwise IP-100,2013-06-13 08:34:00,
2013-06-13 04:39:00,61.4,60.5,28.88,SSE,157,0.0,2.0,97,0.00,,,0.00,Rainwise IP-100,2013-06-13 08:39:00,
2013-06-13 04:44:00,61.5,60.5,28.87,SSE,157,0.0,0.0,97,0.00,,,0.00,Rainwise IP-100,2013-06-13 08:44:00,
2013-06-13 04:49:00,61.4,60.5,28.87,SSE,157,0.0,0.0,96,0.00,,,0.00,Rainwise IP-100,2013-06-13 08:49:00,
2013-06-13 04:54:00,61.4,60.5,28.87,SSE,157,0.0,0.0,97,0.00,,,0.00,Rainwise IP-100,2013-06-13 08:54:00,
2013-06-13 04:59:00,61.4,60.5,28.87,SSE,157,0.0,0.0,96,0.00,,,0.00,Rainwise IP-100,2013-06-13 08:59:00,
2013-06-13 05:04:00,61.4,60.5,28.86,SSE,157,0.0,0.0,96,0.00,,,0.00,Rainwise IP-100,2013-06-13 09:04:00,
2013-06-13 05:09:00,61.5,60.5,28.86,SSE,157,0.0,0.0,97,0.00,,,0.00,Rainwise IP-100,2013-06-13 09:09:00,
2013-06-13 05:14:00,61.4,60.5,28.86,SSE,157,0.0,0.0,96,0.00,,,0.00,Rainwise IP-100,2013-06-13 09:14:00,
2013-06-13 05:19:00,61.4,60.5,28.86,ENE,67,0.0,1.0,96,0.00,,,0.00,Rainwise IP-100,2013-06-13 09:19:00,
2013-06-13 05:24:00,61.4,60.5,28.86,ENE,67,0.0,1.0,96,0.00,,,0.00,Rainwise IP-100,2013-06-13 09:24:00,
2013-06-13 05:29:00,61.4,60.5,28.86,ENE,67,0.0,0.0,97,0.00,,,0.00,Rainwise IP-100,2013-06-13 09:29:00,
2013-06-13 05:34:00,61.4,60.5,28.86,ENE,67,0.0,0.0,96,0.00,,,0.00,Rainwise IP-100,2013-06-13 09:34:00,
2013-06-13 05:39:00,61.4,60.5,28.86,ENE,67,0.0,0.0,96,0.00,,,0.00,Rainwise IP-100,2013-06-13 09:39:00,
2013-06-13 05:44:00,61.6,60.5,28.86,SE,135,2.0,2.0,96,0.00,,,0.00,Rainwise IP-100,2013-06-13 09:44:00,
2013-06-13 05:49:00,61.8,60.5,28.86,ESE,112,2.0,3.0,95,0.00,,,0.00,Rainwise IP-100,2013-06-13 09:49:00,
2013-06-13 05:54:00,61.8,60.5,28.85,ESE,112,0.0,2.0,95,0.00,,,0.00,Rainwise IP-100,2013-06-13 09:54:00,
2013-06-13 05:59:00,61.8,60.5,28.85,ESE,112,0.0,0.0,95,0.00,,,0.00,Rainwise IP-100,2013-06-13 09:59:00,
2013-06-13 06:04:00,61.7,60.0,28.84,ESE,112,0.0,0.0,95,0.00,,,0.00,Rainwise IP-100,2013-06-13 10:04:00,
2013-06-13 06:09:00,61.7,60.0,28.84,ESE,112,2.0,2.0,95,0.00,,,0.00,Rainwise IP-100,2013-06-13 10:09:00,
2013-06-13 06:14:00,61.7,60.0,28.84,SE,135,2.0,2.0,94,0.00,,,0.00,Rainwise IP-100,2013-06-13 10:14:00,
2013-06-13 06:19:00,61.9,60.0,28.83,SE,135,2.0,2.0,93,0.00,,,0.00,Rainwise IP-100,2013-06-13 10:19:00,
2013-06-13 06:24:00,61.9,60.5,28.83,SSE,157,2.0,2.0,94,0.00,,,0.00,Rainwise IP-100,2013-06-13 10:24:00,
2013-06-13 06:29:00,61.9,60.5,28.83,South,180,1.0,2.0,94,0.00,,,0.00,Rainwise IP-100,2013-06-13 10:29:00,
2013-06-13 06:34:00,61.9,60.5,28.82,ESE,112,1.0,2.0,94,0.00,,,0.00,Rainwise IP-100,2013-06-13 10:34:00,
2013-06-13 06:39:00,61.9,60.5,28.82,ESE,112,0.0,2.0,94,0.00,,,0.00,Rainwise IP-100,2013-06-13 10:39:00,
2013-06-13 06:44:00,61.9,60.5,28.81,SE,135,2.0,2.0,95,0.00,,,0.00,Rainwise IP-100,2013-06-13 10:44:00,
2013-06-13 06:49:00,61.9,60.5,28.81,SSE,157,1.0,2.0,95,0.00,,,0.00,Rainwise IP-100,2013-06-13 10:49:00,
2013-06-13 06:54:00,61.9,60.5,28.82,SSE,157,1.0,2.0,95,0.00,,,0.00,Rainwise IP-100,2013-06-13 10:54:00,
2013-06-13 06:59:00,61.9,60.5,28.81,SSE,157,0.0,1.0,95,0.00,,,0.00,Rainwise IP-100,2013-06-13 10:59:00,
2013-06-13 07:04:00,61.9,60.5,28.81,SSE,157,0.0,1.0,95,0.00,,,0.00,Rainwise IP-100,2013-06-13 11:04:00,
2013-06-13 07:09:00,62.1,60.5,28.80,SSE,157,0.0,0.0,95,0.00,,,0.00,Rainwise IP-100,2013-06-13 11:09:00,
2013-06-13 07:15:00,62.1,60.5,28.80,SSE,157,0.0,0.0,95,0.00,,,0.00,Rainwise IP-100,2013-06-13 11:15:00,
2013-06-13 07:20:00,62.1,60.5,28.80,SE,135,1.0,2.0,95,0.00,,,0.00,Rainwise IP-100,2013-06-13 11:20:00,
2013-06-13 07:25:00,62.1,60.5,28.80,ESE,112,3.0,3.0,95,0.00,,,0.00,Rainwise IP-100,2013-06-13 11:25:00,
2013-06-13 07:30:00,62.1,60.5,28.80,SE,135,2.0,3.0,94,0.00,,,0.00,Rainwise IP-100,2013-06-13 11:30:00,
2013-06-13 07:35:00,62.2,60.0,28.80,ESE,112,1.0,3.0,93,0.00,,,0.00,Rainwise IP-100,2013-06-13 11:35:00,
2013-06-13 07:40:00,62.3,60.0,28.80,SE,135,2.0,2.0,92,0.00,,,0.00,Rainwise IP-100,2013-06-13 11:40:00,
2013-06-13 07:45:00,62.3,60.0,28.80,SE,135,1.0,3.0,92,0.00,,,0.00,Rainwise IP-100,2013-06-13 11:45:00,
2013-06-13 07:50:00,62.3,60.0,28.80,SSE,157,3.0,3.0,92,0.00,,,0.01,Rainwise IP-100,2013-06-13 11:50:00,
2013-06-13 07:55:00,62.3,60.5,28.79,SSE,157,3.0,5.0,93,0.12,,,0.02,Rainwise IP-100,2013-06-13 11:55:00,
2013-06-13 08:00:00,62.3,60.5,28.79,ESE,112,1.0,6.0,93,0.18,,,0.03,Rainwise IP-100,2013-06-13 12:00:00,
2013-06-13 08:05:00,62.3,61.0,28.78,ESE,112,0.0,5.0,94,0.06,,,0.03,Rainwise IP-100,2013-06-13 12:05:00,
2013-06-13 08:10:00,62.1,60.5,28.78,ESE,112,1.0,4.0,95,0.06,,,0.04,Rainwise IP-100,2013-06-13 12:10:00,
2013-06-13 08:15:00,61.9,60.5,28.78,ESE,112,2.0,3.0,95,0.12,,,0.05,Rainwise IP-100,2013-06-13 12:15:00,
2013-06-13 08:20:00,61.9,61.0,28.78,ESE,112,2.0,4.0,96,0.06,,,0.05,Rainwise IP-100,2013-06-13 12:20:00,
2013-06-13 08:25:00,62.1,61.0,28.78,SE,135,3.0,5.0,97,0.06,,,0.06,Rainwise IP-100,2013-06-13 12:25:00,
2013-06-13 08:27:00,61.9,61.0,28.78,SE,135,2.0,5.0,96,0.06,,,0.06,Rainwise IP-100,2013-06-13 12:27:00,
2013-06-13 08:32:00,62.2,61.0,28.77,SE,135,2.0,6.0,97,0.06,,,0.07,Rainwise IP-100,2013-06-13 12:32:00,
2013-06-13 08:37:00,62.3,61.5,28.77,SSE,157,2.0,6.0,97,0.06,,,0.07,Rainwise IP-100,2013-06-13 12:37:00,
2013-06-13 08:42:00,62.3,61.5,28.77,East,90,1.0,4.0,97,0.06,,,0.08,Rainwise IP-100,2013-06-13 12:42:00,
2013-06-13 08:47:00,62.3,61.5,28.77,NE,45,2.0,2.0,97,0.12,,,0.09,Rainwise IP-100,2013-06-13 12:47:00,
2013-06-13 08:48:00,62.3,61.5,28.77,NE,45,2.0,2.0,97,0.12,,,0.09,Rainwise IP-100,2013-06-13 12:48:00,
2013-06-13 08:53:00,62.2,61.5,28.77,NE,45,0.0,0.0,98,0.06,,,0.11,Rainwise IP-100,2013-06-13 12:53:00,
2013-06-13 08:58:00,62.2,61.5,28.76,NE,45,2.0,2.0,98,0.18,,,0.12,Rainwise IP-100,2013-06-13 12:58:00,
2013-06-13 09:11:00,61.9,61.5,28.75,North,360,0.0,0.0,98,0.00,,,0.14,Rainwise IP-100,2013-06-13 13:11:00,
2013-06-13 09:19:00,61.9,61.5,28.75,North,360,1.0,0.0,98,0.12,,,0.15,Rainwise IP-100,2013-06-13 13:19:00,
2013-06-13 09:38:00,61.4,61.0,28.75,North,360,2.0,0.0,98,0.00,,,0.16,Rainwise IP-100,2013-06-13 13:38:00,
2013-06-13 09:44:00,61.5,61.0,28.75,North,360,2.0,2.0,98,0.06,,,0.16,Rainwise IP-100,2013-06-13 13:44:00,
2013-06-13 10:02:00,61.4,61.0,28.75,North,360,2.0,2.0,98,0.12,,,0.17,Rainwise IP-100,2013-06-13 14:02:00,
2013-06-13 10:07:00,61.5,61.0,28.75,North,360,2.0,2.0,98,0.42,,,0.25,Rainwise IP-100,2013-06-13 14:07:00,
2013-06-13 10:12:00,61.4,61.0,28.76,North,360,4.0,4.0,98,0.12,,,0.26,Rainwise IP-100,2013-06-13 14:12:00,
2013-06-13 10:18:00,61.2,60.5,28.76,North,360,2.0,4.0,98,0.12,,,0.27,Rainwise IP-100,2013-06-13 14:18:00,
2013-06-13 10:23:00,61.2,60.5,28.76,North,360,3.0,3.0,98,0.18,,,0.28,Rainwise IP-100,2013-06-13 14:23:00,
2013-06-13 10:39:00,61.1,60.5,28.76,North,360,2.0,2.0,98,0.24,,,0.30,Rainwise IP-100,2013-06-13 14:39:00,
2013-06-13 12:38:00,61.9,61.5,28.72,North,360,1.0,1.0,98,0.96,,,0.48,Rainwise IP-100,2013-06-13 16:38:00,
2013-06-13 12:58:00,61.9,61.5,28.72,NNE,22,2.0,0.0,98,0.00,,,0.48,Rainwise IP-100,2013-06-13 16:58:00,
2013-06-13 13:30:00,61.6,61.0,28.72,NNE,22,3.0,0.0,98,0.00,,,0.48,Rainwise IP-100,2013-06-13 17:30:00,
2013-06-13 13:39:00,61.3,61.0,28.71,North,360,3.0,0.0,98,0.00,,,0.48,Rainwise IP-100,2013-06-13 17:39:00,
2013-06-13 13:44:00,61.3,61.0,28.71,NNE,22,2.0,4.0,98,0.00,,,0.48,Rainwise IP-100,2013-06-13 17:44:00,
2013-06-13 13:49:00,61.2,60.5,28.72,NNE,22,5.0,7.0,98,0.00,,,0.48,Rainwise IP-100,2013-06-13 17:49:00,
2013-06-13 13:54:00,61.2,60.5,28.71,ENE,67,4.0,5.0,98,0.00,,,0.48,Rainwise IP-100,2013-06-13 17:54:00,
2013-06-13 14:17:00,61.2,60.5,28.71,NNE,22,3.0,6.0,98,0.00,,,0.48,Rainwise IP-100,2013-06-13 18:17:00,
2013-06-13 14:24:00,60.8,60.5,28.72,NE,45,4.0,4.0,98,0.00,,,0.48,Rainwise IP-100,2013-06-13 18:24:00,
2013-06-13 14:41:00,60.6,60.0,28.72,North,360,7.0,7.0,98,0.00,,,0.48,Rainwise IP-100,2013-06-13 18:41:00,
2013-06-13 14:46:00,60.5,60.0,28.74,North,360,4.0,8.0,98,0.06,,,0.49,Rainwise IP-100,2013-06-13 18:46:00,
2013-06-13 14:51:00,60.3,60.0,28.74,NE,45,9.0,9.0,98,0.06,,,0.49,Rainwise IP-100,2013-06-13 18:51:00,
2013-06-13 14:57:00,60.1,59.5,28.74,North,360,8.0,9.0,98,0.00,,,0.49,Rainwise IP-100,2013-06-13 18:57:00,
2013-06-13 15:02:00,59.9,59.5,28.74,NE,45,6.0,9.0,98,0.00,,,0.49,Rainwise IP-100,2013-06-13 19:02:00,
2013-06-13 15:07:00,59.9,59.5,28.74,North,360,9.0,11.0,98,0.00,,,0.49,Rainwise IP-100,2013-06-13 19:07:00,
2013-06-13 15:12:00,59.7,59.0,28.75,North,360,7.0,11.0,98,0.00,,,0.49,Rainwise IP-100,2013-06-13 19:12:00,
2013-06-13 15:17:00,59.7,59.0,28.75,NNE,22,6.0,11.0,98,0.00,,,0.49,Rainwise IP-100,2013-06-13 19:17:00,
2013-06-13 15:22:00,59.6,59.0,28.75,NNE,22,9.0,12.0,98,0.00,,,0.49,Rainwise IP-100,2013-06-13 19:22:00,
2013-06-13 15:27:00,59.6,59.0,28.76,NNE,22,8.0,12.0,98,0.00,,,0.49,Rainwise IP-100,2013-06-13 19:27:00,
2013-06-13 15:32:00,59.6,59.0,28.76,NE,45,7.0,12.0,98,0.00,,,0.49,Rainwise IP-100,2013-06-13 19:32:00,
2013-06-13 15:37:00,59.5,59.0,28.76,NNE,22,6.0,9.0,98,0.06,,,0.50,Rainwise IP-100,2013-06-13 19:37:00,
2013-06-13 15:42:00,59.6,59.0,28.77,North,360,10.0,11.0,98,0.12,,,0.51,Rainwise IP-100,2013-06-13 19:42:00,
2013-06-13 15:47:00,59.4,59.0,28.77,North,360,7.0,9.0,98,0.24,,,0.54,Rainwise IP-100,2013-06-13 19:47:00,
2013-06-13 15:57:00,59.3,59.0,28.78,North,360,6.0,0.0,98,0.12,,,0.61,Rainwise IP-100,2013-06-13 19:57:00,
2013-06-13 16:02:00,59.2,58.0,28.77,North,360,9.0,12.0,98,0.36,,,0.62,Rainwise IP-100,2013-06-13 20:02:00,
2013-06-13 16:07:00,59.3,59.0,28.78,NNE,22,7.0,12.0,98,0.42,,,0.64,Rainwise IP-100,2013-06-13 20:07:00,
2013-06-13 16:12:00,59.2,58.0,28.78,North,360,9.0,9.0,98,0.12,,,0.64,Rainwise IP-100,2013-06-13 20:12:00,
2013-06-13 16:17:00,59.2,58.0,28.78,North,360,10.0,12.0,98,0.12,,,0.65,Rainwise IP-100,2013-06-13 20:17:00,
2013-06-13 16:22:00,59.1,58.0,28.78,NE,45,11.0,12.0,98,0.06,,,0.65,Rainwise IP-100,2013-06-13 20:22:00,
2013-06-13 16:30:00,59.1,58.0,28.78,NE,45,11.0,12.0,98,0.06,,,0.65,Rainwise IP-100,2013-06-13 20:30:00,
2013-06-13 16:35:00,59.3,59.0,28.79,North,360,7.0,13.0,98,0.12,,,0.67,Rainwise IP-100,2013-06-13 20:35:00,
2013-06-13 16:40:00,59.1,58.0,28.79,NE,45,7.0,9.0,98,0.18,,,0.68,Rainwise IP-100,2013-06-13 20:40:00,
2013-06-13 16:45:00,59.1,58.0,28.80,NNE,22,7.0,11.0,98,0.06,,,0.69,Rainwise IP-100,2013-06-13 20:45:00,
2013-06-13 16:50:00,59.2,58.0,28.80,NNW,337,12.0,12.0,98,0.06,,,0.69,Rainwise IP-100,2013-06-13 20:50:00,
2013-06-13 16:55:00,59.1,58.0,28.80,North,360,7.0,12.0,98,0.12,,,0.70,Rainwise IP-100,2013-06-13 20:55:00,
2013-06-13 17:00:00,58.9,58.0,28.80,NNE,22,12.0,12.0,98,0.06,,,0.70,Rainwise IP-100,2013-06-13 21:00:00,
2013-06-13 17:05:00,59.1,58.0,28.80,North,360,14.0,14.0,98,0.00,,,0.70,Rainwise IP-100,2013-06-13 21:05:00,
2013-06-13 17:10:00,59.1,58.0,28.81,NNE,22,8.0,14.0,98,0.00,,,0.70,Rainwise IP-100,2013-06-13 21:10:00,
2013-06-13 17:15:00,58.9,58.0,28.81,North,360,6.0,9.0,98,0.06,,,0.71,Rainwise IP-100,2013-06-13 21:15:00,
2013-06-13 17:25:00,59.2,58.0,28.81,North,360,11.0,0.0,98,0.00,,,0.71,Rainwise IP-100,2013-06-13 21:25:00,
2013-06-13 17:31:00,59.1,58.0,28.82,North,360,10.0,14.0,98,0.00,,,0.71,Rainwise IP-100,2013-06-13 21:31:00,
2013-06-13 17:46:00,58.9,58.0,28.82,North,360,6.0,0.0,98,0.00,,,0.71,Rainwise IP-100,2013-06-13 21:46:00,
2013-06-13 17:53:00,58.9,58.0,28.82,NNE,22,6.0,6.0,98,0.06,,,0.72,Rainwise IP-100,2013-06-13 21:53:00,
2013-06-13 17:58:00,59.1,58.0,28.83,North,360,6.0,6.0,98,0.06,,,0.72,Rainwise IP-100,2013-06-13 21:58:00,
2013-06-13 18:03:00,59.0,58.0,28.83,NNE,22,4.0,7.0,98,0.00,,,0.72,Rainwise IP-100,2013-06-13 22:03:00,
2013-06-13 18:08:00,59.0,58.0,28.83,North,360,8.0,8.0,98,0.00,,,0.72,Rainwise IP-100,2013-06-13 22:08:00,
2013-06-13 18:13:00,58.9,58.0,28.83,North,360,6.0,9.0,98,0.06,,,0.73,Rainwise IP-100,2013-06-13 22:13:00,
2013-06-13 18:18:00,58.9,58.0,28.83,North,360,5.0,11.0,98,0.06,,,0.73,Rainwise IP-100,2013-06-13 22:18:00,
2013-06-13 18:24:00,58.9,58.0,28.84,NNW,337,4.0,11.0,98,0.00,,,0.73,Rainwise IP-100,2013-06-13 22:24:00,
2013-06-13 18:29:00,58.9,58.0,28.84,NNW,337,8.0,8.0,98,0.00,,,0.73,Rainwise IP-100,2013-06-13 22:29:00,
2013-06-13 18:34:00,58.9,58.0,28.84,North,360,6.0,8.0,98,0.00,,,0.73,Rainwise IP-100,2013-06-13 22:34:00,
2013-06-13 18:44:00,59.1,58.0,28.84,North,360,5.0,6.0,98,0.00,,,0.73,Rainwise IP-100,2013-06-13 22:44:00,
2013-06-13 18:49:00,58.9,58.0,28.85,NNW,337,9.0,11.0,98,0.00,,,0.73,Rainwise IP-100,2013-06-13 22:49:00,
2013-06-13 18:54:00,58.8,58.0,28.85,North,360,8.0,11.0,98,0.00,,,0.73,Rainwise IP-100,2013-06-13 22:54:00,
2013-06-13 18:59:00,58.8,58.0,28.85,North,360,9.0,10.0,98,0.00,,,0.73,Rainwise IP-100,2013-06-13 22:59:00,
2013-06-13 19:04:00,58.8,58.0,28.86,NNW,337,11.0,11.0,98,0.00,,,0.73,Rainwise IP-100,2013-06-13 23:04:00,
2013-06-13 19:09:00,58.8,58.0,28.86,North,360,7.0,11.0,98,0.00,,,0.73,Rainwise IP-100,2013-06-13 23:09:00,
2013-06-13 19:14:00,58.8,58.0,28.87,NNE,22,9.0,9.0,98,0.00,,,0.73,Rainwise IP-100,2013-06-13 23:14:00,
2013-06-13 19:19:00,58.9,58.0,28.87,North,360,8.0,9.0,98,0.00,,,0.73,Rainwise IP-100,2013-06-13 23:19:00,
2013-06-13 19:24:00,58.9,58.0,28.87,North,360,4.0,7.0,98,0.00,,,0.73,Rainwise IP-100,2013-06-13 23:24:00,
2013-06-13 19:29:00,59.1,58.0,28.88,North,360,5.0,7.0,98,0.00,,,0.73,Rainwise IP-100,2013-06-13 23:29:00,
2013-06-13 19:34:00,59.2,58.0,28.87,NNW,337,6.0,8.0,98,0.00,,,0.73,Rainwise IP-100,2013-06-13 23:34:00,
2013-06-13 19:39:00,59.4,59.0,28.88,North,360,6.0,8.0,98,0.00,,,0.73,Rainwise IP-100,2013-06-13 23:39:00,
2013-06-13 19:44:00,59.4,59.0,28.88,North,360,5.0,8.0,98,0.00,,,0.73,Rainwise IP-100,2013-06-13 23:44:00,
2013-06-13 19:49:00,59.4,59.0,28.88,NNW,337,9.0,9.0,98,0.00,,,0.73,Rainwise IP-100,2013-06-13 23:49:00,
2013-06-13 19:54:00,59.4,58.0,28.88,North,360,7.0,8.0,97,0.00,,,0.73,Rainwise IP-100,2013-06-13 23:54:00,
2013-06-13 19:59:00,59.4,58.0,28.89,North,360,5.0,9.0,97,0.00,,,0.73,Rainwise IP-100,2013-06-13 23:59:00,
2013-06-13 20:04:00,59.5,58.0,28.89,North,360,9.0,13.0,97,0.00,,,0.73,Rainwise IP-100,2013-06-14 00:04:00,
2013-06-13 20:09:00,59.5,58.0,28.89,North,360,8.0,9.0,97,0.00,,,0.73,Rainwise IP-100,2013-06-14 00:09:00,
2013-06-13 20:14:00,59.4,58.0,28.90,NNW,337,9.0,11.0,97,0.00,,,0.73,Rainwise IP-100,2013-06-14 00:14:00,
2013-06-13 20:19:00,59.4,59.0,28.90,North,360,8.0,11.0,98,0.00,,,0.73,Rainwise IP-100,2013-06-14 00:19:00,
2013-06-13 20:24:00,59.3,59.0,28.90,North,360,6.0,11.0,98,0.00,,,0.73,Rainwise IP-100,2013-06-14 00:24:00,
2013-06-13 20:29:00,59.3,59.0,28.90,NNW,337,11.0,14.0,98,0.00,,,0.73,Rainwise IP-100,2013-06-14 00:29:00,
2013-06-13 20:34:00,59.2,58.0,28.90,NNW,337,12.0,15.0,98,0.00,,,0.73,Rainwise IP-100,2013-06-14 00:34:00,
2013-06-13 20:39:00,59.2,58.0,28.90,North,360,9.0,12.0,98,0.00,,,0.73,Rainwise IP-100,2013-06-14 00:39:00,
2013-06-13 20:45:00,59.1,58.0,28.91,NNW,337,12.0,12.0,98,0.00,,,0.73,Rainwise IP-100,2013-06-14 00:45:00,
2013-06-13 20:49:00,58.9,58.0,28.91,North,360,7.0,14.0,97,0.00,,,0.73,Rainwise IP-100,2013-06-14 00:49:00,
2013-06-13 20:54:00,58.9,58.0,28.91,NNW,337,6.0,11.0,97,0.00,,,0.73,Rainwise IP-100,2013-06-14 00:54:00,
2013-06-13 20:59:00,58.9,57.5,28.92,North,360,9.0,13.0,96,0.00,,,0.73,Rainwise IP-100,2013-06-14 00:59:00,
2013-06-13 21:04:00,58.9,57.5,28.92,NNW,337,6.0,11.0,96,0.00,,,0.73,Rainwise IP-100,2013-06-14 01:04:00,
2013-06-13 21:09:00,58.9,57.5,28.92,North,360,7.0,12.0,96,0.00,,,0.73,Rainwise IP-100,2013-06-14 01:09:00,
2013-06-13 21:14:00,58.9,57.5,28.92,North,360,9.0,14.0,96,0.00,,,0.73,Rainwise IP-100,2013-06-14 01:14:00,
2013-06-13 21:20:00,58.9,57.5,28.92,NNW,337,8.0,12.0,96,0.00,,,0.73,Rainwise IP-100,2013-06-14 01:20:00,
2013-06-13 21:24:00,58.9,57.5,28.92,North,360,12.0,14.0,96,0.00,,,0.73,Rainwise IP-100,2013-06-14 01:24:00,
2013-06-13 21:29:00,58.9,57.5,28.92,North,360,7.0,13.0,96,0.00,,,0.73,Rainwise IP-100,2013-06-14 01:29:00,
2013-06-13 21:34:00,58.8,57.5,28.92,NNW,337,7.0,11.0,96,0.00,,,0.73,Rainwise IP-100,2013-06-14 01:34:00,
2013-06-13 21:39:00,58.7,57.5,28.92,NNW,337,5.0,11.0,96,0.00,,,0.73,Rainwise IP-100,2013-06-14 01:39:00,
2013-06-13 21:44:00,58.6,58.0,28.93,North,360,6.0,9.0,97,0.00,,,0.73,Rainwise IP-100,2013-06-14 01:44:00,
2013-06-13 21:49:00,58.6,58.0,28.93,North,360,6.0,10.0,97,0.00,,,0.73,Rainwise IP-100,2013-06-14 01:49:00,
2013-06-13 21:54:00,58.6,57.5,28.93,North,360,9.0,11.0,96,0.00,,,0.73,Rainwise IP-100,2013-06-14 01:54:00,
2013-06-13 21:59:00,58.7,57.5,28.93,NNW,337,6.0,9.0,96,0.00,,,0.73,Rainwise IP-100,2013-06-14 01:59:00,
2013-06-13 22:04:00,58.8,57.5,28.94,NNW,337,7.0,12.0,96,0.00,,,0.73,Rainwise IP-100,2013-06-14 02:04:00,
2013-06-13 22:09:00,58.8,57.5,28.94,NNW,337,6.0,13.0,96,0.00,,,0.73,Rainwise IP-100,2013-06-14 02:09:00,
2013-06-13 22:14:00,58.9,57.5,28.94,NW,315,7.0,11.0,96,0.00,,,0.73,Rainwise IP-100,2013-06-14 02:14:00,
2013-06-13 22:19:00,58.9,57.5,28.95,NW,315,4.0,11.0,96,0.00,,,0.73,Rainwise IP-100,2013-06-14 02:19:00,
2013-06-13 22:24:00,58.9,57.5,28.95,NNW,337,4.0,10.0,96,0.00,,,0.73,Rainwise IP-100,2013-06-14 02:24:00,
2013-06-13 22:29:00,58.8,57.5,28.95,North,360,4.0,9.0,96,0.00,,,0.73,Rainwise IP-100,2013-06-14 02:29:00,
2013-06-13 22:34:00,58.7,57.5,28.95,NNW,337,3.0,9.0,96,0.00,,,0.73,Rainwise IP-100,2013-06-14 02:34:00,
2013-06-13 22:39:00,58.7,57.5,28.95,North,360,7.0,11.0,96,0.00,,,0.73,Rainwise IP-100,2013-06-14 02:39:00,
2013-06-13 22:44:00,58.7,57.5,28.95,NNW,337,7.0,11.0,95,0.00,,,0.73,Rainwise IP-100,2013-06-14 02:44:00,
2013-06-13 22:49:00,58.8,57.5,28.95,NNW,337,5.0,9.0,95,0.00,,,0.73,Rainwise IP-100,2013-06-14 02:49:00,
2013-06-13 22:54:00,58.7,57.5,28.95,North,360,5.0,7.0,95,0.00,,,0.73,Rainwise IP-100,2013-06-14 02:54:00,
2013-06-13 22:59:00,58.7,57.5,28.95,NNW,337,5.0,8.0,95,0.00,,,0.73,Rainwise IP-100,2013-06-14 02:59:00,
2013-06-13 23:04:00,58.7,57.5,28.95,NNW,337,7.0,8.0,95,0.00,,,0.73,Rainwise IP-100,2013-06-14 03:04:00,
2013-06-13 23:09:00,58.7,57.5,28.95,NNW,337,3.0,8.0,96,0.00,,,0.73,Rainwise IP-100,2013-06-14 03:09:00,
2013-06-13 23:14:00,58.7,57.5,28.95,NNW,337,4.0,8.0,96,0.00,,,0.73,Rainwise IP-100,2013-06-14 03:14:00,
2013-06-13 23:19:00,58.6,57.5,28.95,NW,315,4.0,7.0,96,0.00,,,0.73,Rainwise IP-100,2013-06-14 03:19:00,
2013-06-13 23:25:00,58.4,57.0,28.95,North,360,4.0,9.0,96,0.00,,,0.73,Rainwise IP-100,2013-06-14 03:25:00,
2013-06-13 23:30:00,58.3,57.5,28.96,NW,315,2.0,7.0,97,0.00,,,0.73,Rainwise IP-100,2013-06-14 03:30:00,
2013-06-13 23:35:00,58.3,57.5,28.96,NW,315,1.0,7.0,97,0.00,,,0.73,Rainwise IP-100,2013-06-14 03:35:00,
2013-06-13 23:40:00,58.1,57.5,28.96,WNW,292,4.0,5.0,97,0.00,,,0.73,Rainwise IP-100,2013-06-14 03:40:00,
2013-06-13 23:45:00,58.0,57.5,28.95,NW,315,3.0,7.0,97,0.00,,,0.73,Rainwise IP-100,2013-06-14 03:45:00,
2013-06-13 23:50:00,57.9,57.0,28.95,NW,315,3.0,6.0,95,0.00,,,0.73,Rainwise IP-100,2013-06-14 03:50:00,
2013-06-13 23:55:00,58.0,57.0,28.96,NW,315,2.0,8.0,96,0.00,,,0.73,Rainwise IP-100,2013-06-14 03:55:00,